SRQ6853 RPVM-RPNS

Flight info

Callsign SRQ6853
Flight time 0h 39m
Altitude 11000
Route CAREB4P CAREB
Aircraft AT76/M-SDFGIRY/S

Departure

Time 2026-04-26 07:04
Airport Mactan Cebu International Airport (RPVM)

Arrival

Time 2026-04-26 07:43
Airport Siargao Airport (RPNS)
Time Latitude Longitude Altitude Speed Heading
2026-04-26 06:40 10.31331 123.97998 35 ft 0 kts 314°
2026-04-26 06:54 10.31330 123.97998 35 ft 1 kts 314°
2026-04-26 06:54 10.31320 123.98009 35 ft 3 kts 313°
2026-04-26 06:55 10.31306 123.98024 35 ft 3 kts 308°
2026-04-26 06:55 10.31294 123.98041 35 ft 3 kts 298°
2026-04-26 06:55 10.31287 123.98059 35 ft 3 kts 270°
2026-04-26 06:55 10.31290 123.98073 35 ft 1 kts 226°
2026-04-26 06:56 10.31294 123.98077 35 ft 0 kts 225°
2026-04-26 06:59 10.31255 123.98038 35 ft 13 kts 225°
2026-04-26 06:59 10.31193 123.97975 35 ft 13 kts 224°
2026-04-26 06:59 10.31120 123.97903 35 ft 12 kts 225°
2026-04-26 06:59 10.31048 123.97829 34 ft 15 kts 225°
2026-04-26 07:00 10.30982 123.97763 35 ft 14 kts 224°
2026-04-26 07:00 10.30913 123.97696 35 ft 16 kts 224°
2026-04-26 07:00 10.30828 123.97610 35 ft 19 kts 224°
2026-04-26 07:00 10.30738 123.97521 35 ft 16 kts 225°
2026-04-26 07:01 10.30655 123.97437 36 ft 18 kts 224°
2026-04-26 07:01 10.30564 123.97348 35 ft 18 kts 224°
2026-04-26 07:01 10.30488 123.97271 36 ft 11 kts 224°
2026-04-26 07:01 10.30424 123.97205 36 ft 14 kts 225°
2026-04-26 07:02 10.30359 123.97161 35 ft 6 kts 170°
2026-04-26 07:02 10.30312 123.97196 35 ft 10 kts 133°
2026-04-26 07:02 10.30259 123.97251 34 ft 12 kts 135°
2026-04-26 07:02 10.30205 123.97305 32 ft 11 kts 135°
2026-04-26 07:03 10.30189 123.97363 32 ft 7 kts 69°
2026-04-26 07:03 10.30202 123.97388 32 ft 12 kts 54°
2026-04-26 07:03 10.30401 123.97589 33 ft 71 kts 44°
2026-04-26 07:03 10.30895 123.98054 40 ft 118 kts 39°
2026-04-26 07:04 10.31468 123.98717 360 ft 131 kts 45°
2026-04-26 07:04 10.32110 123.99414 770 ft 140 kts 44°
2026-04-26 07:04 10.32849 124.00094 1169 ft 148 kts 43°
2026-04-26 07:04 10.33654 124.00870 1327 ft 171 kts 44°
2026-04-26 07:05 10.34533 124.01750 1675 ft 177 kts 46°
2026-04-26 07:05 10.35385 124.02645 2136 ft 177 kts 52°
2026-04-26 07:05 10.35683 124.03838 2511 ft 184 kts 100°
2026-04-26 07:05 10.35005 124.04948 2994 ft 189 kts 129°
2026-04-26 07:06 10.34145 124.05957 3358 ft 189 kts 125°
2026-04-26 07:06 10.33616 124.06657 3563 ft 188 kts 122°
2026-04-26 07:06 10.32893 124.07757 3880 ft 187 kts 119°
2026-04-26 07:06 10.32062 124.09314 4240 ft 188 kts 113°
2026-04-26 07:07 10.31538 124.10534 4538 ft 188 kts 110°
2026-04-26 07:07 10.31057 124.11777 4825 ft 189 kts 109°
2026-04-26 07:07 10.30592 124.13024 5105 ft 189 kts 108°
2026-04-26 07:07 10.30126 124.14274 5391 ft 190 kts 109°
2026-04-26 07:08 10.29655 124.15532 5662 ft 191 kts 109°
2026-04-26 07:08 10.29174 124.16792 5964 ft 191 kts 110°
2026-04-26 07:08 10.28688 124.18048 6236 ft 192 kts 110°
2026-04-26 07:08 10.28193 124.19315 6509 ft 194 kts 110°
2026-04-26 07:09 10.27695 124.20590 6777 ft 194 kts 110°
2026-04-26 07:09 10.27203 124.21856 7081 ft 192 kts 110°
2026-04-26 07:09 10.26714 124.23109 7393 ft 190 kts 110°
2026-04-26 07:09 10.26226 124.24352 7693 ft 189 kts 110°
2026-04-26 07:10 10.24794 124.28016 8649 ft 184 kts 110°
2026-04-26 07:11 10.23860 124.30403 9282 ft 180 kts 110°
2026-04-26 07:11 10.23404 124.31577 9609 ft 178 kts 110°
2026-04-26 07:11 10.22951 124.32740 9914 ft 176 kts 110°
2026-04-26 07:11 10.22503 124.33884 10209 ft 173 kts 112°
2026-04-26 07:12 10.21896 124.34933 10511 ft 172 kts 122°
2026-04-26 07:12 10.21209 124.35920 10702 ft 178 kts 123°
2026-04-26 07:12 10.20456 124.36990 10774 ft 190 kts 123°
2026-04-26 07:12 10.19674 124.38126 10809 ft 202 kts 122°
2026-04-26 07:13 10.18872 124.39347 10825 ft 213 kts 121°
2026-04-26 07:13 10.18052 124.40637 10829 ft 222 kts 121°
2026-04-26 07:13 10.17199 124.41977 10834 ft 229 kts 121°
2026-04-26 07:13 10.16333 124.43336 10834 ft 235 kts 121°
2026-04-26 07:14 10.15422 124.44763 10833 ft 240 kts 121°
2026-04-26 07:14 10.14525 124.46180 10833 ft 243 kts 121°
2026-04-26 07:14 10.13598 124.47656 10831 ft 246 kts 121°
2026-04-26 07:14 10.12680 124.49119 10834 ft 247 kts 121°
2026-04-26 07:15 10.11755 124.50599 10833 ft 249 kts 122°
2026-04-26 07:15 10.10815 124.52081 10830 ft 250 kts 122°
2026-04-26 07:15 10.09869 124.53560 10831 ft 250 kts 122°
2026-04-26 07:15 10.08935 124.55025 10833 ft 251 kts 122°
2026-04-26 07:16 10.07984 124.56513 10836 ft 252 kts 122°
2026-04-26 07:16 10.07033 124.58005 10837 ft 252 kts 122°
2026-04-26 07:16 10.06079 124.59499 10837 ft 252 kts 122°
2026-04-26 07:16 10.05122 124.60994 10836 ft 253 kts 122°
2026-04-26 07:17 10.04165 124.62489 10838 ft 253 kts 122°
2026-04-26 07:17 10.03209 124.63982 10838 ft 253 kts 122°
2026-04-26 07:17 10.02252 124.65479 10836 ft 253 kts 122°
2026-04-26 07:17 10.01310 124.66951 10832 ft 253 kts 122°
2026-04-26 07:18 10.00340 124.68468 10837 ft 252 kts 122°
2026-04-26 07:18 9.99383 124.69962 10838 ft 252 kts 122°
2026-04-26 07:18 9.98428 124.71455 10840 ft 252 kts 122°
2026-04-26 07:18 9.97473 124.72951 10838 ft 252 kts 122°
2026-04-26 07:19 9.96517 124.74446 10838 ft 252 kts 122°
2026-04-26 07:19 9.95762 124.76026 10834 ft 248 kts 102°
2026-04-26 07:19 9.95566 124.77756 10837 ft 247 kts 93°
2026-04-26 07:19 9.95500 124.79495 10838 ft 247 kts 92°
2026-04-26 07:20 9.95434 124.81240 10838 ft 248 kts 92°
2026-04-26 07:20 9.95328 124.82992 10840 ft 249 kts 94°
2026-04-26 07:20 9.95191 124.84741 10837 ft 249 kts 94°
2026-04-26 07:20 9.95053 124.86498 10836 ft 250 kts 94°
2026-04-26 07:21 9.94915 124.88248 10837 ft 250 kts 94°
2026-04-26 07:21 9.94776 124.90005 10838 ft 250 kts 94°
2026-04-26 07:21 9.94637 124.91760 10836 ft 249 kts 94°
2026-04-26 07:21 9.94499 124.93513 10840 ft 249 kts 94°
2026-04-26 07:22 9.94362 124.95264 10836 ft 249 kts 94°
2026-04-26 07:22 9.94228 124.97012 10841 ft 248 kts 94°
2026-04-26 07:22 9.94343 124.98747 10843 ft 246 kts 81°
2026-04-26 07:22 9.94674 125.00456 10841 ft 247 kts 78°
2026-04-26 07:23 9.95046 125.02156 10840 ft 247 kts 77°
2026-04-26 07:23 9.95392 125.03864 10840 ft 247 kts 80°
2026-04-26 07:23 9.95537 125.05011 10842 ft 248 kts 85°
2026-04-26 07:23 9.95659 125.06754 10845 ft 248 kts 87°
2026-04-26 07:24 9.95692 125.07343 10849 ft 249 kts 87°
2026-04-26 07:24 9.95847 125.10871 10718 ft 255 kts 88°
2026-04-26 07:24 9.95914 125.12680 10586 ft 258 kts 88°
2026-04-26 07:24 9.95979 125.14508 10451 ft 260 kts 88°
2026-04-26 07:25 9.96042 125.16322 10286 ft 262 kts 88°
2026-04-26 07:25 9.96105 125.18172 10121 ft 263 kts 88°
2026-04-26 07:25 9.96171 125.20046 9954 ft 264 kts 88°
2026-04-26 07:25 9.96235 125.21887 9798 ft 264 kts 88°
2026-04-26 07:26 9.96298 125.23749 9626 ft 264 kts 88°
2026-04-26 07:26 9.96379 125.25612 9453 ft 264 kts 86°
2026-04-26 07:26 9.96535 125.27470 9302 ft 264 kts 85°
2026-04-26 07:26 9.96716 125.29320 9144 ft 264 kts 84°
2026-04-26 07:27 9.96907 125.31167 8997 ft 263 kts 84°
2026-04-26 07:27 9.97103 125.33011 8848 ft 263 kts 84°
2026-04-26 07:27 9.97298 125.34852 8702 ft 263 kts 84°
2026-04-26 07:27 9.97494 125.36702 8525 ft 264 kts 84°
2026-04-26 07:28 9.97689 125.38552 8307 ft 261 kts 84°
2026-04-26 07:28 9.97877 125.40360 8089 ft 255 kts 84°
2026-04-26 07:28 9.98064 125.42134 7871 ft 251 kts 84°
2026-04-26 07:28 9.98251 125.43881 7654 ft 248 kts 84°
2026-04-26 07:29 9.98435 125.45611 7441 ft 245 kts 84°
2026-04-26 07:29 9.98619 125.47321 7220 ft 243 kts 84°
2026-04-26 07:29 9.98801 125.49021 7016 ft 241 kts 84°
2026-04-26 07:29 9.98983 125.50708 6810 ft 240 kts 84°
2026-04-26 07:30 9.99163 125.52388 6598 ft 239 kts 84°
2026-04-26 07:30 9.99339 125.54048 6388 ft 233 kts 84°
2026-04-26 07:30 9.99624 125.55637 6178 ft 227 kts 75°
2026-04-26 07:30 10.00127 125.57142 5954 ft 223 kts 71°
2026-04-26 07:31 10.00664 125.58603 5732 ft 218 kts 73°
2026-04-26 07:31 10.00871 125.59730 5572 ft 216 kts 85°
2026-04-26 07:31 10.00973 125.61245 5361 ft 215 kts 88°
2026-04-26 07:31 10.01028 125.62761 5146 ft 214 kts 88°
2026-04-26 07:32 10.01052 125.63759 5004 ft 214 kts 89°
2026-04-26 07:32 10.01044 125.65768 4725 ft 213 kts 92°
2026-04-26 07:32 10.00970 125.67265 4521 ft 210 kts 94°
2026-04-26 07:32 10.00878 125.68732 4376 ft 206 kts 94°
2026-04-26 07:33 10.00782 125.70173 4233 ft 203 kts 94°
2026-04-26 07:33 10.00685 125.71588 4081 ft 199 kts 94°
2026-04-26 07:33 10.00585 125.72975 3939 ft 196 kts 94°
2026-04-26 07:33 10.00507 125.74343 3794 ft 192 kts 93°
2026-04-26 07:34 10.00445 125.75680 3647 ft 188 kts 92°
2026-04-26 07:34 10.00672 125.76941 3511 ft 180 kts 71°
2026-04-26 07:34 10.00957 125.77718 3422 ft 174 kts 71°
2026-04-26 07:34 10.01470 125.79232 3239 ft 166 kts 81°
2026-04-26 07:35 10.01544 125.80368 3090 ft 162 kts 88°
2026-04-26 07:35 10.01565 125.81529 2924 ft 163 kts 89°
2026-04-26 07:35 10.01555 125.82291 2831 ft 163 kts 92°
2026-04-26 07:35 10.01453 125.83823 2638 ft 163 kts 94°
2026-04-26 07:36 10.01350 125.84956 2481 ft 163 kts 95°
2026-04-26 07:36 10.01235 125.86100 2346 ft 162 kts 95°
2026-04-26 07:36 10.00993 125.87210 2191 ft 162 kts 105°
2026-04-26 07:36 10.00671 125.88307 2036 ft 162 kts 105°
2026-04-26 07:37 10.00453 125.89041 1959 ft 160 kts 105°
2026-04-26 07:37 10.00350 125.89391 1945 ft 158 kts 105°
2026-04-26 07:37 9.99846 125.91130 1891 ft 149 kts 105°
2026-04-26 07:37 9.99559 125.92125 1855 ft 145 kts 105°
2026-04-26 07:38 9.99258 125.93066 1864 ft 137 kts 111°
2026-04-26 07:38 9.98901 125.93938 1858 ft 131 kts 110°
2026-04-26 07:38 9.98562 125.94787 1879 ft 129 kts 110°
2026-04-26 07:38 9.98236 125.95635 1868 ft 129 kts 110°
2026-04-26 07:39 9.97886 125.96465 1871 ft 128 kts 115°
2026-04-26 07:39 9.97474 125.97267 1871 ft 128 kts 117°
2026-04-26 07:39 9.97028 125.98079 1784 ft 134 kts 117°
2026-04-26 07:39 9.96574 125.98902 1673 ft 133 kts 117°
2026-04-26 07:40 9.96122 125.99686 1610 ft 122 kts 119°
2026-04-26 07:40 9.95704 126.00399 1538 ft 114 kts 125°
2026-04-26 07:40 9.95047 126.00843 1460 ft 115 kts 147°
2026-04-26 07:40 9.94327 126.01190 1426 ft 115 kts 155°
2026-04-26 07:41 9.93574 126.01471 1381 ft 116 kts 155°
2026-04-26 07:41 9.92820 126.01713 1392 ft 112 kts 159°
2026-04-26 07:41 9.92059 126.01886 1319 ft 116 kts 166°
2026-04-26 07:41 9.91247 126.02004 1134 ft 117 kts 167°
2026-04-26 07:42 9.90464 126.02118 1113 ft 106 kts 170°
2026-04-26 07:42 9.89684 126.02080 1017 ft 119 kts 179°
2026-04-26 07:42 9.88841 126.02008 871 ft 126 kts 183°
2026-04-26 07:42 9.87966 126.01848 501 ft 128 kts 187°
2026-04-26 07:43 9.87103 126.01730 294 ft 124 kts 186°
2026-04-26 07:43 9.86283 126.01591 47 ft 113 kts 185°
2026-04-26 07:43 9.85772 126.01510 29 ft 32 kts 195°
2026-04-26 07:43 9.85729 126.01500 29 ft 2 kts 192°
2026-04-26 07:44 9.85721 126.01506 29 ft 2 kts 136°
2026-04-26 07:44 9.85713 126.01517 29 ft 2 kts 121°
2026-04-26 07:44 9.85711 126.01523 29 ft 0 kts 109°
2026-04-26 07:44 9.85710 126.01532 30 ft 2 kts 99°
2026-04-26 07:45 9.85698 126.01548 30 ft 3 kts 146°
2026-04-26 07:45 9.85681 126.01578 30 ft 0 kts 107°
2026-04-26 07:45 9.85683 126.01565 30 ft 3 kts 77°
2026-04-26 07:45 9.85685 126.01571 30 ft 0 kts 66°